Weather History for Punta Gorda, FL

Change the Weather History Date:

Monday, November 19, 2012

  Actual Average Record
Temperature  
Mean Temperature 62 °F -  
Max Temperature 73 °F 77 °F 86 °F (1998)
Min Temperature 50 °F 56 °F 39 °F (2008)
Degree Days  
Heating Degree Days 4    
Growing Degree Days 12 (Base 50)    
Moisture  
Dew Point 53 °F    
Average Humidity 82    
Maximum Humidity 100    
Minimum Humidity 50    
Precipitation  
Precipitation 0.00 in - - ()
Sea Level Pressure  
Sea Level Pressure 30.15 in    
Wind  
Wind Speed 6 mph (NNE)    
Max Wind Speed 13 mph    
Max Gust Speed -    
Visibility 7 miles    
Events Fog    
Averages and records for this station are not official NWS values.
T = Trace of Precipitation, MM = Missing Value Source: NWS Daily Summary

Daily Weather History Graph

Daily Weather History Graph

Search for Another Location

Airport:

Trip Planner

Search our weather history database for the weather conditions in past years. The results will help you decide how hot, cold, wet, or windy it might be!

Date:

Astronomy

Nov. 19, 2012 Rise Set
Actual Time 6:51 AM EST 5:35 PM EST
Civil Twilight 6:26 AM EST 6:00 PM EST
Nautical Twilight 5:58 AM EST 6:28 PM EST
Astronomical Twilight 5:30 AM EST 6:56 PM EST
Moon 12:05 PM EST (11/19) 11:46 PM EST (11/19)
Length of Visible Light 11h 34m
Length of Day
10h 44m
Waxing Crescent, 40% of the Moon is Illuminated
Nov 19
Waxing Crescent
Nov 20
First Quarter
Nov 28
Full
Dec 6
Last Quarter
Dec 13
New

Hourly Weather History & Observations

Time (EST) Temp. Dew Point Humidity Pressure Visibility Wind Dir Wind Speed Gust Speed Precip Events Conditions
12:53 AM 57.9 °F 55.0 °F 90% 30.17 in 10.0 mi NE 8.1 mph - N/A   Clear
1:53 AM 57.0 °F 53.1 °F 87% 30.17 in 10.0 mi NE 6.9 mph - N/A   Clear
2:53 AM 54.0 °F 52.0 °F 93% 30.17 in 9.0 mi Calm Calm - N/A   Clear
3:53 AM 54.0 °F 52.0 °F 93% 30.17 in 9.0 mi NNE 5.8 mph - N/A   Clear
4:53 AM 53.1 °F 51.1 °F 93% 30.17 in 6.0 mi NE 4.6 mph - N/A   Clear
5:10 AM 51.8 °F 51.8 °F 100% 30.17 in 1.8 mi NE 3.5 mph - N/A   Clear
5:27 AM 53.6 °F 51.8 °F 94% 30.17 in 2.5 mi Calm Calm - N/A   Clear
5:43 AM 53.6 °F 50.0 °F 88% 30.17 in 4.0 mi NNE 3.5 mph - N/A   Clear
5:53 AM 53.1 °F 51.1 °F 93% 30.17 in 4.0 mi NE 3.5 mph - N/A   Clear
6:01 AM 51.8 °F 51.8 °F 100% 30.17 in 1.8 mi Calm Calm - N/A   Clear
6:11 AM 51.8 °F 50.0 °F 94% 30.18 in 0.5 mi Calm Calm - N/A Fog Fog
6:16 AM 50.0 °F 48.2 °F 94% 30.18 in 1.0 mi Calm Calm - N/A   Mist
6:20 AM 51.8 °F 48.2 °F 88% 30.18 in 1.0 mi Calm Calm - N/A   Mist
6:33 AM 53.6 °F 50.0 °F 88% 30.18 in 2.0 mi Calm Calm - N/A   Partly Cloudy
6:37 AM 53.6 °F 50.0 °F 88% 30.18 in 1.0 mi Calm Calm - N/A   Mist
6:44 AM 51.8 °F 50.0 °F 94% 30.18 in 0.5 mi Calm Calm - N/A Fog Fog
6:53 AM 53.1 °F 51.1 °F 93% 30.18 in 5.0 mi Calm Calm - N/A   Clear
7:53 AM 55.9 °F 54.0 °F 93% 30.18 in 8.0 mi North 6.9 mph - N/A   Clear
8:53 AM 60.1 °F 53.1 °F 78% 30.19 in 10.0 mi NNE 12.7 mph - N/A   Clear
9:53 AM 64.9 °F 54.0 °F 68% 30.19 in 10.0 mi North 8.1 mph - N/A   Clear
10:53 AM 69.1 °F 55.0 °F 61% 30.18 in 10.0 mi North 10.4 mph - N/A   Clear
11:53 AM 72.0 °F 55.0 °F 55% 30.15 in 10.0 mi North 11.5 mph - N/A   Clear
12:53 PM 73.9 °F 54.0 °F 50% 30.12 in 10.0 mi NNE 12.7 mph - N/A   Clear
1:53 PM 73.9 °F 54.0 °F 50% 30.09 in 10.0 mi North 10.4 mph - N/A   Clear
2:53 PM 73.9 °F 55.0 °F 52% 30.08 in 10.0 mi North 9.2 mph - N/A   Clear
3:53 PM 73.0 °F 55.9 °F 55% 30.08 in 10.0 mi North 9.2 mph - N/A   Clear
4:53 PM 68.0 °F 55.9 °F 65% 30.09 in 10.0 mi NNE 11.5 mph - N/A   Clear
5:53 PM 62.1 °F 55.0 °F 78% 30.11 in 10.0 mi NNE 11.5 mph - N/A   Clear
6:53 PM 59.0 °F 55.0 °F 87% 30.12 in 10.0 mi NE 8.1 mph - N/A   Clear
7:18 PM 59.0 °F 55.4 °F 88% 30.11 in 10.0 mi NE 9.2 mph - N/A   Mostly Cloudy
7:53 PM 60.1 °F 55.0 °F 83% 30.12 in 10.0 mi NE 11.5 mph - N/A   Overcast
8:08 PM 60.8 °F 53.6 °F 77% 30.12 in 10.0 mi NE 11.5 mph - N/A   Overcast
8:53 PM 59.0 °F 54.0 °F 83% 30.13 in 10.0 mi NE 11.5 mph - N/A   Overcast
10:53 PM 59.0 °F 53.1 °F 81% 30.13 in 10.0 mi NNE 8.1 mph - N/A   Overcast
11:53 PM 59.0 °F 53.1 °F 81% 30.12 in 9.0 mi NNE 8.1 mph - N/A   Overcast